Regional Weather Roundup
Issued by NWS

Home | Current Version | Previous Version | Graphics & Text | Print | Product List | Glossary On
Versions: 1 2 3 4 5 6 7 8 9 10 11 12 13 14 15 16 17 18 19 20 21 22 23 24 25 26 27 28 29 30 31 32 33 34 35 36 37 38 39 40 41 42 43 44 45 46 47 48 49 50
926
ASUS44 KMEG 281810
RWRTN
TENNESSEE HOURLY STATE WEATHER ROUNDUP
NATIONAL WEATHER SERVICE MEMPHIS TN
100 PM CDT SUN AUG 28 2016

TNZ002-004-019-021-049-052-054-088>092-281900-
WEST TENNESSEE

CITY           SKY/WX    TMP DP  RH WIND       PRES   REMARKS
MEMPHIS INTL   MOSUNNY   95  68  41 SE5       30.10F HX  99
NWS MEMPHIS      N/A     91 N/A N/A MISG        N/A
JACKSON        SUNNY     91  74  57 SE5       30.12F HX 100
DYERSBURG      SUNNY     90  75  62 MISG      30.11  HX 100
UNION CITY     MOSUNNY   91  75  59 NE6       30.12F HX 102
PARIS          SUNNY     90  73  58 E5        30.16S HX  98
LEXINGTON      SUNNY     91  73  55 E6        30.14S HX 100
$$

TNZ008-025-027-028-033-062-065-066-281900-
NORTH MIDDLE TENNESSEE

CITY           SKY/WX    TMP DP  RH WIND       PRES   REMARKS
NASHVILLE      MOSUNNY   92  70  48 VRB3      30.16F HX  97
CLARKSVILLE    SUNNY     91  70  49 SE3       30.16S HX  96
COOKEVILLE     SUNNY     91  72  52 CALM      30.17F HX  98
CROSSVILLE     SUNNY     88  67  49 NE9       30.23F HX  91
$$

TNZ061-075-076-078-094-096-097-281900-
SOUTH MIDDLE TENNESSEE

CITY           SKY/WX    TMP DP  RH WIND       PRES   REMARKS
FAYETTEVILLE   SUNNY     90  70  51 SE5       30.17S HX  95
TULLAHOMA      MOSUNNY   90  66  45 E6        30.18F HX  92
WINCHESTER     SUNNY     90  72  55 SE3       30.17F HX  96
MCMINNVILLE    SUNNY     91  73  55 VRB6      30.17F HX 100
COLUMBIA       SUNNY     91  72  52 SE5       30.14F HX  98
SHELBYVILLE    MOSUNNY   93  73  52 CALM      30.17F HX 102
$$

TNZ017-018-042-046-047-281900-
NORTHEAST TENNESSEE

CITY           SKY/WX    TMP DP  RH WIND       PRES   REMARKS
TRI CITIES     PTSUNNY   90  69  50 VRB6      30.21F HX  94
ELIZABETHTON   MOSUNNY   88  68  51 CALM      30.20F HX  91
$$

TNZ012-013-036-069-073-074-281900-
CENTRAL EAST TENNESSEE

CITY           SKY/WX    TMP DP  RH WIND       PRES   REMARKS
KNOXVILLE      NOT AVBL
OAK RIDGE      MOSUNNY   92  69  47 VRB5      30.19  HX  97
GATLINBURG       N/A     91  70  49 CALM      30.16F HX  97
MORRISTOWN     MOSUNNY   91  68  46 E5        30.18F HX  95
$$

TNZ083-085-099-281900-
SOUTHEAST TENNESSEE

CITY           SKY/WX    TMP DP  RH WIND       PRES   REMARKS
CHATTANOOGA    MOSUNNY   92  69  47 CALM      30.15F HX  97
$$

SKY/WX REPORTED AS FAIR MEANS FEW OR NO CLOUDS BELOW
12 THOUSAND FEET.





USA.gov is the U.S. government's official web portal to all federal, state and local government web resources and services.